Potter Cove, Prudence Island, RI current weather conditions

sailwx.info

Wind from 058 at 3 knots gusting 6

Air temperature 22.8° C

Last reported at 2019-Aug-23 22:00 UTC.
Time now 2019-Aug-23 22:53 UTC

Location: N 41°38' W 071°20'.
View on Google Maps.

See reports from other nearby stations

  
Tides and Currents Weather Stations Pressure Air Temp Water Temp Dewpoint Dewpoint Depression Visibility Wind Speed Wind Dir Waves Ship Positions
date/time (UTC)wind fromknots sea level pressurealtimeterstation pressurevisibilityair tempwater tempwave heightnotes
2019-Aug-23 22:00 058 3 gusting 6 22.8
2019-Aug-23 21:54 343 1 gusting 3 22.8
2019-Aug-23 21:48 346 2 gusting 5 23.3
2019-Aug-23 21:42 329 1 gusting 4 23.3
2019-Aug-23 21:36 325 4 gusting 6 23.3
2019-Aug-23 21:30 322 1 gusting 3 23.3
2019-Aug-23 21:24 318 1 gusting 4 23.3
2019-Aug-23 21:18 314 2 gusting 5 23.3
2019-Aug-23 21:12 310 3 gusting 6 23.3
2019-Aug-23 21:06 318 1 gusting 5 23.3
2019-Aug-23 21:00 296 2 gusting 3 23.9
2019-Aug-23 20:54 273 0 gusting 3 23.9
2019-Aug-23 20:48 205 1 gusting 3 23.3
2019-Aug-23 20:42 274 1 gusting 5 23.3
2019-Aug-23 20:36 260 2 gusting 3 23.3
2019-Aug-23 20:30 225 0 gusting 1 23.9
2019-Aug-23 20:24 261 1 gusting 3 23.3
2019-Aug-23 20:18 268 23.3
2019-Aug-23 20:12 160 1 gusting 2 23.3
2019-Aug-23 20:06 261 1 gusting 3 22.8
2019-Aug-23 20:00 212 1 gusting 1 22.8
2019-Aug-23 19:54 166 0 gusting 1 22.8
2019-Aug-23 19:48 256 2 gusting 4 22.8
2019-Aug-23 19:42 237 1 gusting 2 23.3
2019-Aug-23 19:36 212 1 gusting 3 23.3
2019-Aug-23 19:30 267 1 gusting 4 23.9
2019-Aug-23 19:24 231 2 gusting 3 23.3
2019-Aug-23 19:18 233 0 gusting 2 23.9
2019-Aug-23 19:12 052 1 gusting 2 23.9
2019-Aug-23 19:06 218 0 gusting 1 23.9
2019-Aug-23 19:00 327 23.9
2019-Aug-23 18:54 241 0 gusting 2 23.3
2019-Aug-23 18:48 170 2 gusting 3 22.8
2019-Aug-23 18:42 154 1 gusting 3 23.3
2019-Aug-23 18:36 266 1 gusting 3 22.8
2019-Aug-23 18:30 210 1 gusting 4 22.8
2019-Aug-23 18:24 202 1 gusting 4 23.3
2019-Aug-23 18:18 082 1 gusting 3 23.3
2019-Aug-23 18:12 094 2 gusting 3 22.8
2019-Aug-23 18:06 045 2 gusting 3 22.8
2019-Aug-23 18:00 038 2 gusting 3 22.2
2019-Aug-23 17:54 332 22.8
2019-Aug-23 17:48 031 0 gusting 3 22.2
2019-Aug-23 17:42 348 0 gusting 3 22.2
2019-Aug-23 17:36 310 0 gusting 3 22.2
2019-Aug-23 17:30 325 1 gusting 2 21.7
2019-Aug-23 17:24 044 21.7
2019-Aug-23 17:18 290 1 gusting 4 21.7
2019-Aug-23 17:12 272 3 gusting 5 21.1
2019-Aug-23 17:06 309 1 gusting 4 21.7
2019-Aug-23 17:00 327 2 gusting 5 21.7
2019-Aug-23 16:54 286 3 gusting 4 21.1
2019-Aug-23 16:48 298 3 gusting 5 21.1
2019-Aug-23 16:42 298 2 gusting 5 21.1
2019-Aug-23 16:36 266 2 gusting 4 20.6
2019-Aug-23 16:30 295 3 gusting 6 20.0
2019-Aug-23 16:24 284 1 gusting 6 20.6
2019-Aug-23 16:18 250 2 gusting 4 20.0
2019-Aug-23 16:12 240 1 gusting 3 20.0
2019-Aug-23 16:06 326 1 gusting 5 20.0
2019-Aug-23 16:00 246 2 gusting 4 20.0
2019-Aug-23 15:54 259 1 gusting 5 20.0
2019-Aug-23 15:48 294 3 gusting 6 19.4
2019-Aug-23 15:42 273 3 gusting 4 19.4
2019-Aug-23 15:36 233 3 gusting 5 19.4
2019-Aug-23 15:30 272 1 gusting 4 19.4
2019-Aug-23 15:24 273 0 gusting 3 19.4
2019-Aug-23 15:18 290 1 gusting 2 19.4
2019-Aug-23 15:12 342 0 gusting 3 19.4
2019-Aug-23 15:06 328 19.4
2019-Aug-23 15:00 324 19.4
2019-Aug-23 14:54 342 1 gusting 2 18.9
2019-Aug-23 14:48 340 18.9
2019-Aug-23 14:42 005 0 gusting 2 18.9
2019-Aug-23 14:36 355 0 gusting 2 18.3
2019-Aug-23 14:30 321 0 gusting 1 18.3
2019-Aug-23 14:24 326 1 gusting 1 18.3
2019-Aug-23 14:18 264 1 gusting 2 17.8
2019-Aug-23 14:12 303 18.3
2019-Aug-23 14:06 275 1 gusting 2 18.3
2019-Aug-23 14:00 255 17.8
2019-Aug-23 13:54 256 17.8
2019-Aug-23 13:48 282 17.8
2019-Aug-23 13:42 309 17.8
2019-Aug-23 13:36 321 1 gusting 3 17.8
2019-Aug-23 13:30 353 1 gusting 3 17.8
2019-Aug-23 13:24 001 0 gusting 3 17.8
2019-Aug-23 13:18 352 1 gusting 3 17.2
2019-Aug-23 13:12 003 1 gusting 4 17.2
2019-Aug-23 13:06 353 1 gusting 5 17.2
2019-Aug-23 13:00 339 3 gusting 6 17.8
2019-Aug-23 12:54 332 2 gusting 5 17.8
2019-Aug-23 12:48 334 3 gusting 6 17.8
2019-Aug-23 12:42 347 1 gusting 4 18.3
2019-Aug-23 12:36 332 2 gusting 4 18.3
2019-Aug-23 12:30 345 2 gusting 4 18.3
2019-Aug-23 12:24 338 1 gusting 5 18.9
2019-Aug-23 12:18 342 3 gusting 6 18.9
2019-Aug-23 12:12 340 3 gusting 6 19.4
2019-Aug-23 12:06 326 2 gusting 4 19.4
2019-Aug-23 12:00 331 1 gusting 3 20.0
2019-Aug-23 11:54 353 1 gusting 4 20.6
2019-Aug-23 11:48 014 3 gusting 6 20.6
2019-Aug-23 11:42 029 4 gusting 7 21.1
2019-Aug-23 11:36 034 4 gusting 5 21.1
2019-Aug-23 11:30 029 3 gusting 5 21.1
2019-Aug-23 11:24 014 3 gusting 4 21.1
2019-Aug-23 11:18 018 3 gusting 5 21.1
2019-Aug-23 11:12 031 3 gusting 5 21.1
2019-Aug-23 11:06 020 3 gusting 6 21.1
2019-Aug-23 11:00 007 3 gusting 7 21.1
2019-Aug-23 10:54 019 3 gusting 6 21.1
2019-Aug-23 10:48 014 2 gusting 6 21.1
2019-Aug-23 10:42 009 3 gusting 6 21.1
2019-Aug-23 10:36 002 4 gusting 6 21.1
2019-Aug-23 10:30 002 3 gusting 5 21.1
2019-Aug-23 10:24 343 3 gusting 6 21.7
2019-Aug-23 10:18 350 3 gusting 6 21.7
2019-Aug-23 10:12 354 4 gusting 8 21.7
2019-Aug-23 10:06 003 4 gusting 6 21.7
2019-Aug-23 10:00 348 3 gusting 8 21.7
2019-Aug-23 09:54 004 3 gusting 6 21.7
2019-Aug-23 09:48 028 6 gusting 8 21.7
2019-Aug-23 09:42 031 6 gusting 8 21.7
2019-Aug-23 09:36 014 4 gusting 6 22.2
2019-Aug-23 09:30 005 2 gusting 8 22.2
2019-Aug-23 09:24 007 4 gusting 8 22.2
2019-Aug-23 09:18 009 3 gusting 6 22.2
2019-Aug-23 09:12 002 4 gusting 8 22.2
2019-Aug-23 09:06 353 3 gusting 7 22.2
2019-Aug-23 09:00 349 3 gusting 8 22.2
2019-Aug-23 08:54 001 3 gusting 6 22.2
2019-Aug-23 08:48 008 5 gusting 7 22.2
2019-Aug-23 08:42 020 3 gusting 6 22.2
2019-Aug-23 08:36 012 5 gusting 8 22.8
2019-Aug-23 08:30 002 4 gusting 8 22.8
2019-Aug-23 08:24 008 5 gusting 6 22.2
2019-Aug-23 08:18 001 2 gusting 6 22.2
2019-Aug-23 08:12 356 3 gusting 6 22.8
2019-Aug-23 08:06 331 3 gusting 6 22.2
2019-Aug-23 08:00 344 2 gusting 6 22.8
2019-Aug-23 07:54 357 3 gusting 6 22.8
2019-Aug-23 07:48 340 3 gusting 6 22.8
2019-Aug-23 07:42 346 3 gusting 6 22.8
2019-Aug-23 07:36 330 3 gusting 6 22.2
2019-Aug-23 07:30 331 3 gusting 8 22.2
2019-Aug-23 07:24 348 4 gusting 6 22.8
2019-Aug-23 07:18 339 2 gusting 6 22.2
2019-Aug-23 07:12 341 3 gusting 5 22.8
2019-Aug-23 07:06 332 3 gusting 9 22.2
2019-Aug-23 07:00 328 4 gusting 7 22.2
2019-Aug-23 06:54 324 3 gusting 6 22.8
2019-Aug-23 06:48 326 3 gusting 8 22.8
2019-Aug-23 06:42 343 3 gusting 7 22.8
2019-Aug-23 06:36 340 3 gusting 7 22.8
2019-Aug-23 06:30 329 3 gusting 7 22.8
2019-Aug-23 06:24 322 3 gusting 7 22.8
2019-Aug-23 06:18 337 2 gusting 6 22.8
2019-Aug-23 06:12 307 4 gusting 7 22.8
2019-Aug-23 06:06 307 3 gusting 5 22.8
2019-Aug-23 06:00 302 2 gusting 4 22.8
2019-Aug-23 05:54 315 2 gusting 4 22.8
2019-Aug-23 05:48 315 2 gusting 4 22.8
2019-Aug-23 05:42 318 2 gusting 5 22.8
2019-Aug-23 05:36 327 3 gusting 5 22.8
2019-Aug-23 05:30 308 1 gusting 4 22.8
2019-Aug-23 05:24 287 3 gusting 4 22.8
2019-Aug-23 05:18 284 3 gusting 6 22.8
2019-Aug-23 05:12 276 4 gusting 6 22.8
2019-Aug-23 05:06 271 3 gusting 6 22.8
2019-Aug-23 05:00 271 3 gusting 6 23.3
2019-Aug-23 04:54 278 3 gusting 5 23.3
2019-Aug-23 04:48 274 3 gusting 5 23.3
2019-Aug-23 04:42 293 3 gusting 6 23.3
2019-Aug-23 04:36 313 4 gusting 6 23.9
2019-Aug-23 04:30 303 2 gusting 4 23.9
2019-Aug-23 04:24 305 3 gusting 5 23.9
2019-Aug-23 04:18 305 4 gusting 6 23.9
2019-Aug-23 04:12 298 5 gusting 6 23.9
2019-Aug-23 04:06 294 3 gusting 5 23.9
2019-Aug-23 04:00 270 3 gusting 5 23.9
2019-Aug-23 03:54 265 3 gusting 5 23.9
2019-Aug-23 03:48 259 3 gusting 5 23.9
2019-Aug-23 03:42 266 3 gusting 5 23.9
2019-Aug-23 03:36 266 3 gusting 5 23.9
2019-Aug-23 03:30 282 2 gusting 4 23.9
2019-Aug-23 03:24 267 3 gusting 5 24.4
2019-Aug-23 03:18 253 3 gusting 4 24.4
2019-Aug-23 03:12 252 3 gusting 5 24.4
2019-Aug-23 03:06 254 3 gusting 5 24.4
2019-Aug-23 03:00 240 2 gusting 5 24.4
2019-Aug-23 02:54 249 2 gusting 4 24.4
2019-Aug-23 02:48 239 1 gusting 5 24.4
2019-Aug-23 02:42 246 3 gusting 6 24.4
2019-Aug-23 02:36 247 4 gusting 6 24.4
2019-Aug-23 02:30 240 1 gusting 5 24.4
2019-Aug-23 02:24 251 3 gusting 5 24.4
2019-Aug-23 02:18 246 2 gusting 3 24.4
2019-Aug-23 02:12 229 2 gusting 4 25.0
2019-Aug-23 02:06 216 1 gusting 2 24.4
2019-Aug-23 02:00 250 2 gusting 3 25.0
2019-Aug-23 01:54 249 0 gusting 1 25.0
2019-Aug-23 01:48 248 1 gusting 3 25.0
2019-Aug-23 01:42 254 2 gusting 3 25.0
2019-Aug-23 01:36 230 1 gusting 3 25.0
2019-Aug-23 01:30 249 3 gusting 4 25.6
2019-Aug-23 01:24 297 2 gusting 5 25.6
2019-Aug-23 01:18 319 2 gusting 5 25.6
2019-Aug-23 01:12 315 3 gusting 4 25.6
2019-Aug-23 01:06 302 1 gusting 3 25.6
2019-Aug-23 01:00 294 1 gusting 4 25.6
2019-Aug-23 00:54 291 3 gusting 5 25.6
2019-Aug-23 00:48 280 3 gusting 6 25.6
2019-Aug-23 00:42 296 4 gusting 6 25.6
2019-Aug-23 00:36 291 2 gusting 6 25.6
2019-Aug-23 00:30 265 2 gusting 6 25.6
2019-Aug-23 00:24 247 1 gusting 3 25.0
2019-Aug-23 00:18 242 1 gusting 3 25.0
2019-Aug-23 00:12 244 1 gusting 2 25.0
2019-Aug-23 00:06 248 1 gusting 3 25.6
2019-Aug-23 00:00 233 1 gusting 5 25.6
2019-Aug-22 23:54 240 1 gusting 5 25.6
2019-Aug-22 23:48 250 2 gusting 3 25.6
2019-Aug-22 23:42 228 2 gusting 4 25.6
2019-Aug-22 23:36 226 2 gusting 5 25.6
2019-Aug-22 23:30 237 1 gusting 5 25.6
2019-Aug-22 23:24 227 2 gusting 4 25.6
2019-Aug-22 23:18 229 1 gusting 5 25.6
2019-Aug-22 23:12 238 2 gusting 6 25.6
2019-Aug-22 23:06 230 2 gusting 5 26.1
2019-Aug-22 23:00 223 3 gusting 6 26.1
2019-Aug-22 22:54 234 3 gusting 7 26.1
2019-Aug-22 22:48 230 2 gusting 5 25.6
2019-Aug-22 22:42 226 2 gusting 6 26.1
2019-Aug-22 22:36 245 4 gusting 6 26.7
2019-Aug-22 22:30 241 3 gusting 5 26.7
2019-Aug-22 22:24 217 3 gusting 6 27.2
2019-Aug-22 22:18 228 2 gusting 6 27.2
2019-Aug-22 22:12 219 2 gusting 6 27.2
2019-Aug-22 22:06 224 4 gusting 6 27.2
2019-Aug-22 22:00 227 2 gusting 5 27.2
2019-Aug-22 21:54 226 3 gusting 6 27.2
2019-Aug-22 21:48 218 3 gusting 6 27.2
2019-Aug-22 21:42 210 2 gusting 6 27.8
2019-Aug-22 21:36 230 2 gusting 6 27.8
2019-Aug-22 21:30 231 3 gusting 8 27.8
2019-Aug-22 21:24 225 3 gusting 7 27.8
2019-Aug-22 21:18 236 3 gusting 6 27.8
2019-Aug-22 21:12 226 2 gusting 6 28.3
2019-Aug-22 21:06 227 4 gusting 6 27.8
2019-Aug-22 21:00 241 2 gusting 6 28.3
2019-Aug-22 20:54 223 3 gusting 8 27.8
2019-Aug-22 20:48 226 4 gusting 8 27.8
2019-Aug-22 20:42 220 4 gusting 7 27.2
2019-Aug-22 20:36 225 4 gusting 7 27.8
2019-Aug-22 20:30 218 5 gusting 9 27.2
2019-Aug-22 20:24 220 4 gusting 8 27.8
2019-Aug-22 20:18 221 3 gusting 8 27.8
2019-Aug-22 20:12 211 4 gusting 7 27.8
2019-Aug-22 20:06 206 6 gusting 11 27.2
2019-Aug-22 20:00 217 4 gusting 7 27.8
2019-Aug-22 19:54 222 5 gusting 9 27.8
2019-Aug-22 19:48 219 5 gusting 11 27.8
2019-Aug-22 19:42 236 4 gusting 9 27.8
2019-Aug-22 19:36 215 5 gusting 8 27.2
2019-Aug-22 19:30 219 3 gusting 9 27.2
2019-Aug-22 19:24 218 6 gusting 10 26.7
2019-Aug-22 19:18 216 5 gusting 13 26.7
2019-Aug-22 19:12 220 6 gusting 11 26.1
2019-Aug-22 19:06 217 4 gusting 8 26.1
2019-Aug-22 19:00 212 4 gusting 11 25.6
2019-Aug-22 18:54 220 5 gusting 11 24.4
2019-Aug-22 18:48 223 5 gusting 11 24.4
2019-Aug-22 18:42 218 7 gusting 13 24.4
2019-Aug-22 18:36 218 5 gusting 12 25.6
2019-Aug-22 18:30 220 6 gusting 13 25.6
2019-Aug-22 18:24 216 6 gusting 13 25.0
2019-Aug-22 18:18 218 7 gusting 12 25.6
2019-Aug-22 18:12 223 5 gusting 10 26.7
2019-Aug-22 18:06 213 5 gusting 10 26.7
2019-Aug-22 18:00 204 5 gusting 10 26.1
2019-Aug-22 17:54 224 4 gusting 8 26.1
2019-Aug-22 17:48 208 5 gusting 8 26.1
2019-Aug-22 17:42 206 4 gusting 6 26.7
2019-Aug-22 17:36 216 4 gusting 7 26.1
2019-Aug-22 17:30 238 5 gusting 8 25.6
2019-Aug-22 17:24 243 4 gusting 8 25.6
2019-Aug-22 17:18 236 3 gusting 6 26.7
2019-Aug-22 17:12 215 4 gusting 6 26.7
2019-Aug-22 17:06 216 4 gusting 6 27.2
2019-Aug-22 17:00 219 3 gusting 7 26.7
2019-Aug-22 16:54 220 3 gusting 10 27.2
2019-Aug-22 16:48 224 4 gusting 10 28.3
2019-Aug-22 16:42 234 4 gusting 6 28.3
2019-Aug-22 16:36 221 5 gusting 8 27.8
2019-Aug-22 16:30 220 3 gusting 7 27.8
2019-Aug-22 16:24 214 2 gusting 6 27.8
2019-Aug-22 16:18 205 4 gusting 7 27.8
2019-Aug-22 16:12 206 1 gusting 7 27.8
2019-Aug-22 16:06 227 3 gusting 7 27.8
2019-Aug-22 16:00 217 4 gusting 8 27.2
2019-Aug-22 15:54 222 2 gusting 8 27.2
2019-Aug-22 15:48 232 4 gusting 9 26.7
2019-Aug-22 15:42 223 5 gusting 8 26.7
2019-Aug-22 15:36 217 5 gusting 9 26.1
2019-Aug-22 15:30 218 6 gusting 10 26.7
2019-Aug-22 15:24 218 5 gusting 8 26.7
2019-Aug-22 15:18 219 4 gusting 7 26.7
2019-Aug-22 15:12 224 2 gusting 5 26.7
2019-Aug-22 15:06 236 3 gusting 6 26.7
2019-Aug-22 15:00 226 4 gusting 7 26.1
2019-Aug-22 14:54 227 4 gusting 7 25.6
2019-Aug-22 14:48 238 2 gusting 5 26.7
2019-Aug-22 14:42 237 3 gusting 6 26.1
2019-Aug-22 14:36 229 1 gusting 5 26.7
2019-Aug-22 14:30 226 1 gusting 5 27.2
2019-Aug-22 14:24 223 3 gusting 6 26.7
2019-Aug-22 14:18 236 2 gusting 6 26.7
2019-Aug-22 14:12 211 3 gusting 6 26.1
2019-Aug-22 14:06 222 3 gusting 6 25.6
2019-Aug-22 14:00 198 3 gusting 6 25.0
2019-Aug-22 13:54 212 0 gusting 3 25.6
2019-Aug-22 13:48 242 2 gusting 4 25.6
2019-Aug-22 13:42 267 0 gusting 3 25.6
2019-Aug-22 13:36 211 2 gusting 5 25.0
2019-Aug-22 13:30 234 1 gusting 3 25.0
2019-Aug-22 13:24 242 1 gusting 3 25.0
2019-Aug-22 13:18 251 1 gusting 4 25.0
2019-Aug-22 13:12 247 1 gusting 4 25.0
2019-Aug-22 13:06 205 3 gusting 5 25.0
2019-Aug-22 13:00 189 3 gusting 4 25.0
2019-Aug-22 12:54 181 2 gusting 3 25.0
2019-Aug-22 12:48 251 2 gusting 4 25.0
2019-Aug-22 12:42 204 3 gusting 5 25.0
2019-Aug-22 12:36 177 1 gusting 3 25.0
2019-Aug-22 12:30 202 1 gusting 4 24.4
2019-Aug-22 12:24 214 2 gusting 5 24.4
2019-Aug-22 12:18 218 3 gusting 6 24.4
2019-Aug-22 12:12 226 3 gusting 7 23.9
2019-Aug-22 12:06 218 4 gusting 6 23.9
2019-Aug-22 12:00 227 3 gusting 6 24.4
2019-Aug-22 11:54 232 2 gusting 5 24.4
2019-Aug-22 11:48 233 2 gusting 5 23.9
2019-Aug-22 11:42 216 1 gusting 3 23.9
2019-Aug-22 11:36 233 2 gusting 5 23.9
2019-Aug-22 11:30 241 2 gusting 5 23.9
2019-Aug-22 11:24 238 3 gusting 6 23.9
2019-Aug-22 11:18 241 1 gusting 3 23.9
2019-Aug-22 11:12 236 1 gusting 5 23.9
2019-Aug-22 11:06 220 1 gusting 6 23.9
2019-Aug-22 11:00 216 3 gusting 5 23.3
2019-Aug-22 10:54 233 1 gusting 4 23.3
2019-Aug-22 10:48 217 2 gusting 5 23.3
2019-Aug-22 10:42 201 2 gusting 5 23.3
2019-Aug-22 10:36 210 2 gusting 5 23.3
2019-Aug-22 10:30 218 1 gusting 3 23.3
2019-Aug-22 10:24 232 0 gusting 3 23.3
2019-Aug-22 10:18 235 1 gusting 3 23.3
2019-Aug-22 10:12 247 1 gusting 3 23.3
2019-Aug-22 10:06 243 1 gusting 5 23.3
2019-Aug-22 10:00 224 1 gusting 4 23.9
2019-Aug-22 09:54 222 1 gusting 3 23.9
2019-Aug-22 09:48 215 1 gusting 3 23.9
2019-Aug-22 09:42 237 1 gusting 4 23.9
2019-Aug-22 09:36 257 3 gusting 6 23.9
2019-Aug-22 09:30 261 4 gusting 5 23.9
2019-Aug-22 09:24 259 3 gusting 5 23.9
2019-Aug-22 09:18 256 1 gusting 5 23.9
2019-Aug-22 09:12 252 3 gusting 5 23.9
2019-Aug-22 09:06 258 3 gusting 6 23.9
2019-Aug-22 09:00 272 4 gusting 7 23.9
2019-Aug-22 08:54 265 4 gusting 7 23.9
2019-Aug-22 08:48 258 4 gusting 5 23.9
2019-Aug-22 08:42 253 3 gusting 5 23.9
2019-Aug-22 08:36 257 3 gusting 5 23.9
2019-Aug-22 08:30 254 4 gusting 6 23.9
2019-Aug-22 08:24 253 4 gusting 6 23.9
2019-Aug-22 08:18 252 3 gusting 7 23.9
2019-Aug-22 08:12 249 4 gusting 7 23.9
2019-Aug-22 08:06 251 5 gusting 6 23.9
2019-Aug-22 08:00 257 3 gusting 6 23.9
2019-Aug-22 07:54 252 3 gusting 6 23.9
2019-Aug-22 07:48 249 3 gusting 6 23.9
2019-Aug-22 07:42 256 3 gusting 7 23.9
2019-Aug-22 07:36 255 3 gusting 7 23.9
2019-Aug-22 07:30 255 5 gusting 9 23.9
2019-Aug-22 07:24 254 5 gusting 7 23.9
2019-Aug-22 07:18 248 4 gusting 7 23.9
2019-Aug-22 07:12 252 5 gusting 6 23.9
2019-Aug-22 07:06 246 3 gusting 5 23.9
2019-Aug-22 07:00 247 3 gusting 6 23.9
2019-Aug-22 06:54 250 3 gusting 6 23.9
2019-Aug-22 06:48 246 3 gusting 6 23.9
2019-Aug-22 06:42 242 2 gusting 6 23.9
2019-Aug-22 06:36 240 2 gusting 5 23.9
2019-Aug-22 06:30 242 2 gusting 6 23.9
2019-Aug-22 06:24 248 2 gusting 4 23.9
2019-Aug-22 06:18 245 2 gusting 4 23.9
2019-Aug-22 06:12 238 2 gusting 4 23.9
2019-Aug-22 06:06 244 2 gusting 4 23.9
2019-Aug-22 06:00 247 3 gusting 6 23.9
2019-Aug-22 05:54 249 3 gusting 6 23.9
2019-Aug-22 05:48 250 5 gusting 8 23.9
2019-Aug-22 05:42 259 2 gusting 6 23.9
2019-Aug-22 05:36 250 3 gusting 5 23.9
2019-Aug-22 05:30 247 4 gusting 6 23.9
2019-Aug-22 05:24 242 3 gusting 5 23.9
2019-Aug-22 05:18 250 3 gusting 5 23.9
2019-Aug-22 05:12 246 3 gusting 6 23.9
2019-Aug-22 05:06 247 3 gusting 5 23.9
2019-Aug-22 05:00 253 3 gusting 6 23.9
2019-Aug-22 04:54 249 3 gusting 5 23.9
2019-Aug-22 04:48 247 3 gusting 5 23.9
2019-Aug-22 04:42 240 2 gusting 5 23.9
2019-Aug-22 04:36 248 5 gusting 8 23.9
2019-Aug-22 04:30 250 5 gusting 8 23.9
2019-Aug-22 04:24 251 6 gusting 7 23.9
2019-Aug-22 04:18 253 5 gusting 7 24.4
2019-Aug-22 04:12 245 4 gusting 7 24.4
2019-Aug-22 04:06 248 5 gusting 9 24.4
2019-Aug-22 04:00 246 5 gusting 8 24.4
2019-Aug-22 03:54 251 7 gusting 13 24.4
2019-Aug-22 03:48 254 7 gusting 12 24.4
2019-Aug-22 03:42 259 9 gusting 13 24.4
2019-Aug-22 03:36 260 9 gusting 14 25.0
2019-Aug-22 03:30 255 8 gusting 15 24.4
2019-Aug-22 03:24 255 8 gusting 14 24.4
2019-Aug-22 03:18 250 8 gusting 13 24.4
2019-Aug-22 03:12 258 9 gusting 14 24.4
2019-Aug-22 03:06 263 6 gusting 12 24.4
2019-Aug-22 03:00 264 7 gusting 13 24.4
2019-Aug-22 02:54 271 6 gusting 11 24.4
2019-Aug-22 02:48 268 6 gusting 13 24.4
2019-Aug-22 02:42 264 9 gusting 18 24.4
2019-Aug-22 02:36 258 10 gusting 17 24.4
2019-Aug-22 02:30 256 11 gusting 18 24.4
2019-Aug-22 02:24 254 8 gusting 18 25.0
2019-Aug-22 02:18 252 9 gusting 13 25.0
2019-Aug-22 02:12 250 7 gusting 13 25.0
2019-Aug-22 02:06 252 8 gusting 15 25.0
2019-Aug-22 02:00 248 7 gusting 13 25.0
2019-Aug-22 01:54 251 7 gusting 12 25.0
2019-Aug-22 01:48 254 6 gusting 12 25.0
2019-Aug-22 01:42 243 6 gusting 13 25.0
2019-Aug-22 01:36 242 6 gusting 12 25.0
2019-Aug-22 01:30 251 7 gusting 12 25.0
2019-Aug-22 01:24 244 7 gusting 15 25.0
2019-Aug-22 01:18 249 8 gusting 14 25.0
2019-Aug-22 01:12 244 7 gusting 13 25.6
2019-Aug-22 01:06 249 7 gusting 13 25.6
2019-Aug-22 01:00 248 7 gusting 13 25.6
2019-Aug-22 00:54 241 7 gusting 14 25.6
2019-Aug-22 00:48 245 6 gusting 10 25.6
2019-Aug-22 00:42 246 6 gusting 11 25.6
2019-Aug-22 00:36 244 6 gusting 11 25.6
2019-Aug-22 00:30 245 6 gusting 11 25.6
2019-Aug-22 00:24 251 6 gusting 11 25.6
2019-Aug-22 00:18 249 6 gusting 11 25.6
2019-Aug-22 00:12 245 5 gusting 9 25.6
2019-Aug-22 00:06 246 5 gusting 10 25.6
2019-Aug-22 00:00 251 5 gusting 10 25.6
2019-Aug-21 23:54 250 5 gusting 8 25.6
2019-Aug-21 23:48 258 5 gusting 9 25.6
2019-Aug-21 23:42 244 5 gusting 9 25.6
2019-Aug-21 23:36 246 5 gusting 9 25.6
2019-Aug-21 23:30 247 6 gusting 12 25.6
2019-Aug-21 23:24 249 6 gusting 10 25.6
2019-Aug-21 23:18 246 5 gusting 8 25.0
2019-Aug-21 23:12 235 5 gusting 9 25.0
2019-Aug-21 23:06 237 5 gusting 9 25.0
2019-Aug-21 23:00 227 4 gusting 9 25.0
2019-Aug-21 22:54 226 6 gusting 10 25.0
2019-Aug-21 22:48 229 5 gusting 9 25.0
2019-Aug-21 22:42 229 5 gusting 11 25.0
2019-Aug-21 22:36 237 4 gusting 8 25.0
2019-Aug-21 22:30 235 5 gusting 10 25.6
2019-Aug-21 22:24 234 5 gusting 10 25.6
2019-Aug-21 22:18 234 6 gusting 13 25.6
2019-Aug-21 22:12 232 7 gusting 13 25.6
2019-Aug-21 22:06 235 5 gusting 11 25.6
2019-Aug-21 22:00 229 3 gusting 8 25.0